Location: Devargunta
(16.7631°N, 80.9077°E)
Time: 19:06:51
(UTC+00:00)

Cosmos 1602 Rocket - Pass Details

Date: 19 January 2021
Orbit: 604 x 632 km, 82.5° (Epoch: 04 March)

Event Time Altitude Azimuth Distance (km) Brightness Sun altitude
Rises 13:09:02 0° 173° (S) 2,844 7.1 -10.7°
Reaches altitude 10° 13:11:18 10° 167° (SSE) 1,942 6.2 -11.2°
Maximum altitude 13:15:26 48° 93° (E) 788 3.7 -12.1°
Drops below altitude 10° 13:19:35 10° 18° (NNE) 1,951 5.8 -13.1°
Enters shadow 13:21:19 - 14° (NNE) 2,641 6.5 -13.5°
